This demonstration page uses our WeatherBlox Daily Observations layout. Learn more.

Hourly Observations for April 19, 2018

Temp ( °F °C ) Dew Point ( °F °C ) Humidity (%) Winds ( mph kmh ) Pressure ( in mb ) Visibility ( mi km ) Precip ( " mm )
12:15 am 00:15 Clear 35 1.8 32 -0.2 87 87 N 6 9 30.39 1029 10 16.0934 0 0
12:35 am 00:35 Clear 35 1.5 31 -0.5 87 87 NNW 5 7 30.39 1029 10 16.0934 0 0
12:55 am 00:55 Clear 32 0 29 -1.7 88 88 NW 5 7 30.39 1029 10 16.0934 0 0
1:15 am 01:15 Clear 32 -0.2 29 -1.4 92 92 NNW 6 9 30.42 1030 10 16.0934 0 0
1:35 am 01:35 Clear 32 0.1 30 -0.9 93 93 NNW 8 13 30.42 1030 10 16.0934 0 0
1:55 am 01:55 Clear 33 0.3 30 -0.9 92 92 NNW 8 13 30.42 1030 10 16.0934 0 0
2:15 am 02:15 Clear 32 0 30 -1.2 92 92 NNW 6 9 30.39 1029 10 16.0934 0 0
2:35 am 02:35 Clear 31 -0.4 29 -1.5 92 92 NNW 6 9 30.42 1030 10 16.0934 0 0
2:55 am 02:55 Clear 31 -0.5 29 -1.5 93 93 NNW 7 11 30.42 1030 10 16.0934 0 0
3:15 am 03:15 Clear 31 -0.4 29 -1.4 93 93 NW 5 7 30.42 1030 10 16.0934 0 0
3:35 am 03:35 Clear 30 -0.9 29 -1.5 96 96 NNW 7 11 30.45 1031 10 16.0934 0 0
3:55 am 03:55 Clear 30 -0.9 28 -2 92 92 NW 7 11 30.45 1031 10 16.0934 0 0
4:15 am 04:15 Clear 29 -1.6 28 -2.1 96 96 NW 7 11 30.45 1031 10 16.0934 0 0
4:35 am 04:35 Clear 28 -2 27 -2.6 96 96 WNW 7 11 30.48 1032 10 16.0934 0 0
4:55 am 04:55 Clear 29 -1.9 27 -2.6 95 95 WNW 7 11 30.48 1032 10 16.0934 0 0
5:15 am 05:15 Clear 28 -2 27 -2.7 95 95 NW 7 11 30.48 1032 10 16.0934 0 0
5:35 am 05:35 Clear 27 -2.6 26 -3.1 96 96 NW 6 9 30.5 1033 10 16.0934 0 0
5:55 am 05:55 Clear 27 -2.7 26 -3.3 96 96 WNW 5 7 30.5 1033 10 16.0934 0 0
6:15 am 06:15 Clear 28 -2.5 27 -2.8 98 98 WNW 6 9 30.5 1033 10 16.0934 0 0
6:35 am 06:35 Clear 28 -2.4 27 -3 96 96 WNW 6 9 30.53 1034 10 16.0934 0 0
6:55 am 06:55 Sunny 27 -2.9 26 -3.4 96 96 WNW 5 7 30.56 1035 10 16.0934 0 0
7:15 am 07:15 Sunny 26 -3.2 26 -3.6 97 97 NW 5 7 30.56 1035 10 16.0934 0 0
7:35 am 07:35 Sunny 28 -2.2 27 -2.6 97 97 NNW 6 9 30.53 1034 10 16.0934 0 0
7:55 am 07:55 Sunny 29 -1.4 28 -2.2 94 94 N 6 9 30.53 1034 10 16.0934 0 0
8:15 am 08:15 Sunny 32 0.2 32 -0.2 97 97 N 3 6 30.5 1033 10 16.0934 0 0
8:35 am 08:35 Sunny 35 1.5 32 0.2 91 91 N 3 6 30.53 1034 10 16.0934 0 0
8:55 am 08:55 Sunny 36 2.1 33 0.5 89 89 N 3 6 30.53 1034 10 16.0934 0 0
9:15 am 09:15 Sunny 37 3 34 1 87 87 NNE 5 7 30.53 1034 10 16.0934 0 0
9:35 am 09:35 Sunny 38 3.6 34 1 83 83 NNE 3 6 30.5 1033 10 16.0934 0 0
9:55 am 09:55 Sunny 40 4.4 34 0.9 78 78 Calm 30.5 1033 10 16.0934 0 0
10:15 am 10:15 Sunny 41 5.2 32 0 69 69 Calm 30.5 1033 10 16.0934 0 0
10:35 am 10:35 Sunny 42 5.7 31 -0.8 63 63 Calm 30.5 1033 10 16.0934 0 0
10:55 am 10:55 Sunny 44 6.4 30 -0.9 60 60 E 5 7 30.5 1033 10 16.0934 0 0
11:15 am 11:15 Sunny 44 6.5 30 -1.1 59 59 Calm 30.5 1033 10 16.0934 0 0
11:35 am 11:35 Sunny 46 7.6 31 -0.8 56 56 E 5 7 30.48 1032 10 16.0934 0 0
11:55 am 11:55 Sunny 45 7.3 29 -1.4 54 54 E 3 6 30.48 1032 10 16.0934 0 0
12:15 pm 12:15 Sunny 47 8.1 30 -1.1 53 53 E 3 6 30.48 1032 10 16.0934 0 0
12:35 pm 12:35 Sunny 47 8.4 29 -1.4 50 50 Calm 30.48 1032 10 16.0934 0 0
12:55 pm 12:55 Sunny 49 9.3 29 -1.5 47 47 SSW 3 6 30.48 1032 10 16.0934 0 0
1:15 pm 13:15 Sunny 50 9.9 30 -0.9 47 47 SSE 6 9 30.42 1030 10 16.0934 0 0
1:35 pm 13:35 Sunny 50 10 28 -2 43 43 SE 3 6 30.42 1030 10 16.0934 0 0
1:55 pm 13:55 Sunny 51 10.8 30 -1.1 44 44 E 9 15 30.39 1029 10 16.0934 0 0
2:15 pm 14:15 Sunny 52 11.1 29 -1.6 42 42 S 8 13 30.39 1029 10 16.0934 0 0
2:35 pm 14:35 Sunny 53 11.4 30 -1.2 42 42 E 10 17 30.39 1029 10 16.0934 0 0
2:55 pm 14:55 Sunny 54 12.1 31 -0.7 41 41 E 10 17 30.36 1028 10 16.0934 0 0
3:15 pm 15:15 Sunny 54 12.2 30 -1.3 39 39 SE 5 7 30.36 1028 10 16.0934 0 0
3:35 pm 15:35 Sunny 55 12.7 31 -0.8 40 40 E 9 15 30.33 1027 10 16.0934 0 0
3:55 pm 15:55 Sunny 55 12.8 29 -1.7 37 37 SE 10 17 30.3 1026 10 16.0934 0 0
4:15 pm 16:15 Sunny 56 13.6 30 -1.1 37 37 ESE 12 19 30.3 1026 10 16.0934 0 0
4:35 pm 16:35 Sunny 56 13.4 29 -1.4 36 36 ESE 13 20 30.3 1026 7 11.26538 0 0
4:55 pm 16:55 Sunny 56 13.4 29 -1.7 35 35 SE 12 19 30.3 1026 10 16.0934 0 0
5:15 pm 17:15 Sunny 56 13.6 29 -1.6 35 35 SE 13 20 30.3 1026 10 16.0934 0 0
5:35 pm 17:35 Sunny 56 13.3 29 -1.7 36 36 ESE 10 17 30.27 1025 10 16.0934 0 0
5:55 pm 17:55 Sunny 56 13.4 28 -2.3 34 34 SE 10 17 30.27 1025 10 16.0934 0 0
6:15 pm 18:15 Sunny 56 13.5 29 -1.5 36 36 ESE 13 20 30.27 1025 10 16.0934 0 0
6:35 pm 18:35 Sunny 56 13.3 29 -1.7 36 36 ESE 15 24 30.27 1025 10 16.0934 0 0
6:55 pm 18:55 Sunny 55 13 29 -1.8 36 36 SE 12 19 30.27 1025 10 16.0934 0 0
7:15 pm 19:15 Sunny 55 13 29 -1.9 36 36 SE 13 20 30.27 1025 10 16.0934 0 0
7:35 pm 19:35 Sunny 54 12.3 28 -2 37 37 SSE 10 17 30.27 1025 10 16.0934 0 0
7:55 pm 19:55 Sunny 52 11.2 27 -2.6 38 38 SE 10 17 30.3 1026 10 16.0934 0 0
8:15 pm 20:15 Sunny 48 9.1 28 -2.3 45 45 SE 9 15 30.3 1026 10 16.0934 0 0
8:35 pm 20:35 Clear 43 6.3 28 -2.3 54 54 SE 8 13 30.33 1027 10 16.0934 0 0
8:55 pm 20:55 Clear 41 5.2 27 -2.6 57 57 SE 8 13 30.36 1028 10 16.0934 0 0
9:15 pm 21:15 Clear 39 3.8 28 -2.5 64 64 SE 8 13 30.36 1028 10 16.0934 0 0
9:35 pm 21:35 Clear 39 3.8 27 -2.7 63 63 SE 8 13 30.36 1028 10 16.0934 0 0
9:55 pm 21:55 Clear 39 3.7 28 -2.5 64 64 SE 9 15 30.36 1028 10 16.0934 0 0
10:15 pm 22:15 Clear 36 2.3 28 -2.5 71 71 ESE 8 13 30.42 1030 10 16.0934 0 0
10:35 pm 22:35 Clear 37 2.6 28 -2.2 71 71 ESE 9 15 30.36 1028 10 16.0934 0 0
10:55 pm 22:55 Clear 37 3 29 -1.6 72 72 ESE 9 15 30.36 1028 10 16.0934 0 0
11:15 pm 23:15 Clear 39 3.8 29 -1.5 69 69 ESE 10 17 30.36 1028 10 16.0934 0 0
11:35 pm 23:35 Clear 38 3.6 28 -2 67 67 SE 9 15 30.39 1029 10 16.0934 0 0
11:55 pm 23:55 Clear 38 3.2 28 -2 69 69 SE 9 15 30.39 1029 10 16.0934 0 0

Powered by AerisWeather